TimeEST,TemperatureF,Dew PointF,Humidity,Sea Level PressureIn,VisibilityMPH,Wind Direction,Wind SpeedMPH,Gust SpeedMPH,PrecipitationIn,Events,Conditions,WindDirDegrees,DateUTC
12:53 AM,66.9,64.0,90,30.12,10.0,Calm,Calm,-,N/A,,Clear,0,2013-01-14 05:53:00
1:53 AM,64.9,63.0,93,30.13,10.0,ESE,4.6,-,N/A,,Clear,120,2013-01-14 06:53:00
2:23 AM,64.4,62.6,94,30.13,10.0,ESE,3.5,-,N/A,,Partly Cloudy,120,2013-01-14 07:23:00
2:53 AM,64.9,63.0,93,30.14,10.0,Calm,Calm,-,N/A,,Clear,0,2013-01-14 07:53:00
3:53 AM,63.0,61.0,93,30.13,10.0,Calm,Calm,-,N/A,,Clear,0,2013-01-14 08:53:00
4:53 AM,62.1,60.1,93,30.12,10.0,East,4.6,-,N/A,,Clear,90,2013-01-14 09:53:00
5:53 AM,62.1,60.1,93,30.12,10.0,East,5.8,-,N/A,,Clear,100,2013-01-14 10:53:00
7:53 AM,62.1,60.1,93,30.14,6.0,East,3.5,-,N/A,,Scattered Clouds,90,2013-01-14 12:53:00
8:53 AM,66.0,63.0,90,30.16,10.0,East,5.8,-,N/A,,Mostly Cloudy,100,2013-01-14 13:53:00
9:53 AM,71.1,64.0,78,30.17,10.0,SE,9.2,-,N/A,,Overcast,130,2013-01-14 14:53:00
10:53 AM,77.0,61.0,58,30.17,10.0,SSE,11.5,-,0.01,,Partly Cloudy,150,2013-01-14 15:53:00
11:53 AM,78.1,57.9,50,30.14,10.0,South,12.7,-,N/A,,Mostly Cloudy,170,2013-01-14 16:53:00
12:53 PM,80.1,59.0,48,30.13,10.0,SW,10.4,-,N/A,,Mostly Cloudy,220,2013-01-14 17:53:00
3:53 PM,78.1,59.0,52,30.12,10.0,SSW,6.9,-,N/A,,Clear,210,2013-01-14 20:53:00
4:53 PM,75.9,59.0,56,30.13,10.0,SSW,8.1,-,N/A,,Partly Cloudy,200,2013-01-14 21:53:00
5:53 PM,73.9,60.1,62,30.14,10.0,South,6.9,-,N/A,,Clear,190,2013-01-14 22:53:00
6:53 PM,71.1,60.1,68,30.14,10.0,South,4.6,-,N/A,,Clear,180,2013-01-14 23:53:00
7:53 PM,68.0,59.0,73,30.14,10.0,SE,3.5,-,N/A,,Clear,140,2013-01-15 00:53:00
8:53 PM,66.0,60.1,81,30.13,10.0,East,6.9,-,N/A,,Clear,100,2013-01-15 01:53:00
9:53 PM,66.0,60.1,81,30.14,10.0,Calm,Calm,-,N/A,,Clear,0,2013-01-15 02:53:00
10:53 PM,64.0,59.0,84,30.15,10.0,Calm,Calm,-,N/A,,Clear,0,2013-01-15 03:53:00
11:53 PM,62.1,57.9,86,30.14,10.0,Calm,Calm,-,N/A,,Clear,0,2013-01-15 04:53:00